{"data":{"norad_id":67135,"intl_designator":"2025-301C","name":"KUIPER-00175","alt_names":[],"object_type":"PAYLOAD","status":"ACTIVE","operator":null,"country":"US","launch_date":"2025-12-16","launch_site_code":"AFETR","launch_vehicle":null,"mission":null,"orbit_class":"UNKNOWN","rcs_meters":null,"size_class":null,"mass_kg":null,"dimensions":null,"purposes":[],"wikipedia_slug":null,"has_3d_model":false,"image_url":null,"decayed_at":null,"tle_current":{"epoch":"2026-09-20T13:35:28.192128Z","epoch_age_seconds":100475,"freshness":"FRESH","line1":"1 67135U 25301C   26263.56629852  .00001621  00000+0  24160-3 0  9990","line2":"2 67135  51.8998 268.8337 0000590  46.7242 313.3769 14.79936427 42875","mean_motion":14.79936427,"eccentricity":5.9e-5,"inclination_deg":51.8998,"raan_deg":268.8337,"arg_perigee_deg":46.7242,"mean_anomaly_deg":313.3769,"bstar":0.0002416,"rev_number":4287,"period_min":97.301476855938,"perigee_km":629.11135895923,"apogee_km":629.93826305293,"semimajor_km":7007.6618110061,"source":"CELESTRAK","updated_at":"2026-09-21T09:00:16.454087Z"}}}